Location: Twillingate Astronomical Observatory
(49.6173°N, 54.7580°W)
Time: 15:05:36
(UTC-02:-30)

Amateur Radio Satellites - All Passes

Search period start: 07 July 2015 14:35
Search period end: 08 July 2015 14:35
Location: Twillingate Astronomical Observatory, 49.6173°N, 54.7580°W

Satellite Date Start Highest point End Downlink Frequencies (MHz)
Time Altitude Azimuth
PCSat 07 Jul 14:41:32 14:45:08 19° 108° (ESE) 14:48:53 145.827
ISS 07 Jul 14:46:03 14:46:52 11° 224° (SW) 14:47:36 145.825
O/OREOS (USA 219) 07 Jul 14:46:07 14:47:29 11° 35° (NE) 14:49:00 437.305
Cosmos 2491 07 Jul 14:48:41 14:56:44 43° 87° (E) 15:04:52 435.465 / 435.565
TISAT 1 07 Jul 14:52:00 14:55:38 28° 294° (WNW) 14:59:12 437.305
BEESAT 3 07 Jul 15:08:30 15:12:36 77° 49° (NE) 15:16:38 437.485
BEESAT 07 Jul 15:10:31 15:15:21 80° 103° (ESE) 15:20:10 436.000
AO-7 07 Jul 15:17:38 15:25:45 59° 62° (ENE) 15:33:57 29.400- 29.500
Oscar 19 07 Jul 15:19:46 15:22:39 14° 275° (W) 15:25:19 437.125/150
BEESAT 2 07 Jul 15:25:22 15:29:31 87° 50° (NE) 15:33:34 435.950
Cosmos 2504 07 Jul 15:26:31 15:32:15 24° 59° (ENE) 15:38:29 435.465 / 435.565
SWISSCUBE 07 Jul 15:26:42 15:31:31 69° 288° (WNW) 15:36:17 437.505
AIST 2 07 Jul 15:27:32 15:31:25 34° 38° (NE) 15:35:15 435.215
KKS-1 07 Jul 15:32:24 15:36:10 27° 94° (E) 15:39:58 437.445
ITUPSAT 1 07 Jul 15:33:38 15:38:27 67° 288° (WNW) 15:43:13 437.325
HORYU 2 07 Jul 15:36:06 15:40:23 53° 70° (ENE) 15:44:44 437.375
ITAMSAT 1 07 Jul 15:36:06 15:40:45 31° 266° (W) 15:45:23 435.822/435.867
Gurwin Techsat 1B 07 Jul 15:49:38 15:54:01 25° 269° (W) 15:58:18 435.225
AIST 1 07 Jul 16:04:59 16:09:24 86° 280° (W) 16:13:51
JAS-2 07 Jul 16:07:32 16:12:40 57° 260° (W) 16:18:14 435.910
STARS 07 Jul 16:15:58 16:20:10 44° 99° (E) 16:24:23 437.465
MOZHAYETS 4 07 Jul 16:16:14 16:16:21 10° 82° (E) 16:16:44
YUBILEINY 07 Jul 16:18:08 16:25:42 33° 277° (W) 16:33:05 435.215
PCSat 07 Jul 16:22:31 16:27:57 83° 305° (NW) 16:33:27 145.827
O/OREOS (USA 219) 07 Jul 16:23:38 16:28:04 52° 58° (ENE) 16:32:31 437.305
SO-50 07 Jul 16:33:17 16:37:43 40° 120° (ESE) 16:42:18 436.795
Cosmos 2491 07 Jul 16:44:54 16:53:31 53° 289° (WNW) 17:02:05 435.465 / 435.565
BEESAT 3 07 Jul 16:47:41 16:50:03 15° 247° (WSW) 16:52:17 437.485
BEESAT 07 Jul 16:49:31 16:52:39 17° 303° (WNW) 16:55:39 436.000
CUTE-I 07 Jul 16:57:10 17:00:52 20° 57° (ENE) 17:04:42 437.470
BEESAT 2 07 Jul 17:05:01 17:07:00 13° 248° (WSW) 17:08:48 435.950
AIST 2 07 Jul 17:06:05 17:10:04 40° 239° (WSW) 17:13:58 435.215
SWISSCUBE 07 Jul 17:06:33 17:08:34 12° 306° (NW) 17:10:24 437.505
KKS-1 07 Jul 17:08:47 17:12:55 38° 293° (WNW) 17:17:00 437.445
AO-7 07 Jul 17:11:11 17:18:57 40° 264° (W) 17:26:41 29.400- 29.500
ITUPSAT 1 07 Jul 17:13:40 17:15:31 12° 307° (NW) 17:17:10 437.325
HORYU 2 07 Jul 17:14:07 17:17:23 19° 269° (W) 17:20:34 437.375
Cosmos 2504 07 Jul 17:17:58 17:25:29 87° 262° (W) 17:33:34 435.465 / 435.565
Cubesat XI-IV 07 Jul 17:31:03 17:35:49 34° 63° (ENE) 17:40:39 437.490
AIST 1 07 Jul 17:46:07 17:47:53 12° 301° (WNW) 17:49:27
MOZHAYETS 4 07 Jul 17:49:49 17:54:30 76° 103° (ESE) 17:59:09
STARS 07 Jul 17:52:51 17:56:25 24° 297° (WNW) 17:59:52 437.465
CUSAT 1 07 Jul 17:58:29 17:59:51 13° 65° (ENE) 18:01:16 437.405
HO-68 07 Jul 17:58:42 18:01:01 12° 38° (NE) 18:03:35 435.675
O/OREOS (USA 219) 07 Jul 18:03:41 18:07:11 22° 256° (WSW) 18:10:37 437.305
PCSat 07 Jul 18:07:52 18:12:13 23° 329° (NNW) 18:16:31 145.827
SO-50 07 Jul 18:13:40 18:18:17 42° 321° (NW) 18:22:59 436.795
CUBESAT XI-V 07 Jul 18:26:39 18:29:59 19° 89° (E) 18:33:25 437.345
CUTE-I 07 Jul 18:34:59 18:40:23 82° 255° (WSW) 18:45:49 437.470
BRITE-PL 07 Jul 18:45:34 18:49:19 21° 62° (ENE) 18:53:00 437.365/2234.400
Cosmos 2491 07 Jul 18:48:19 18:53:06 15° 317° (NW) 18:57:28 435.465 / 435.565
GONETS M04 07 Jul 18:57:23 19:04:57 33° 61° (ENE) 19:12:39
STRAND 1 07 Jul 19:06:17 19:09:37 18° 88° (E) 19:13:06 437.568
Cubesat XI-IV 07 Jul 19:10:44 19:15:50 43° 262° (W) 19:20:58 437.490
Cosmos 2504 07 Jul 19:11:35 19:16:50 20° 281° (W) 19:22:00 435.465 / 435.565
CUTE 1.7 + AOD 2 07 Jul 19:13:52 19:14:58 11° 57° (ENE) 19:16:16 437.475
CANX-2 07 Jul 19:16:57 19:18:48 13° 58° (ENE) 19:20:49 2200.000
DANDE 07 Jul 19:25:45 19:28:32 55° 261° (W) 19:31:05 436.750
MOZHAYETS 4 07 Jul 19:28:09 19:31:13 17° 301° (WNW) 19:34:09
HO-68 07 Jul 19:40:29 19:47:01 41° 60° (ENE) 19:53:38 435.675
CUSAT 1 07 Jul 19:40:30 19:42:29 19° 266° (W) 19:44:25 437.405
GOMX 1 07 Jul 19:40:33 19:45:00 35° 68° (ENE) 19:49:14 467.674
SEEDS 07 Jul 19:54:14 19:57:20 21° 63° (ENE) 20:00:34 437.485
PCSat 07 Jul 19:55:20 19:57:40 13° 354° (N) 19:59:59 145.827
SO-50 07 Jul 19:56:49 20:00:05 17° 344° (NNW) 20:03:19 436.795
AAUSAT CUBESAT 2 07 Jul 19:57:09 19:59:42 16° 61° (ENE) 20:02:22 437.432
CUBESAT XI-V 07 Jul 20:03:13 20:07:51 58° 288° (WNW) 20:12:26 437.345
DOVE 4 07 Jul 20:07:44 20:12:05 39° 69° (ENE) 20:16:14 437.250
CUTE-I 07 Jul 20:18:45 20:21:26 13° 276° (W) 20:23:51 437.470
BRITE-PL 07 Jul 20:22:11 20:27:30 68° 259° (W) 20:32:26 437.365/2234.400
PRISM 07 Jul 20:22:50 20:27:04 75° 103° (ESE) 20:31:15 437.425
COMPASS 1 07 Jul 20:24:59 20:28:41 32° 68° (ENE) 20:32:27 437.405
CINEMA 3 07 Jul 20:28:13 20:31:59 29° 67° (ENE) 20:35:42 145.822/145.860
Cosmos 2499 07 Jul 20:35:09 20:41:42 29° 62° (ENE) 20:48:49 435.465 / 435.565
Oscar 11 07 Jul 20:41:04 20:44:21 22° 63° (ENE) 20:47:43 145.826/435.025
ZACube-1 07 Jul 20:41:33 20:43:38 14° 59° (ENE) 20:45:51 437.345
STRAND 1 07 Jul 20:44:18 20:49:29 75° 288° (WNW) 20:54:36 437.568
CUTE 1.7 + AOD 2 07 Jul 20:45:59 20:50:12 77° 75° (ENE) 20:54:28 437.475
CANX-2 07 Jul 20:49:54 20:54:08 89° 256° (WSW) 20:58:25 2200.000
CUBEBUG 2 07 Jul 20:53:11 20:56:40 26° 66° (ENE) 21:00:11 437.445
GONETS M04 07 Jul 20:54:00 21:02:40 71° 265° (W) 21:11:15
FUNcube-1 07 Jul 21:14:30 21:17:56 26° 66° (ENE) 21:21:27 145.935
M-CUBED/EXP-1 PRIME 07 Jul 21:17:44 21:20:54 20° 98° (E) 21:24:19 437.505
GOMX 1 07 Jul 21:18:39 21:23:10 33° 265° (W) 21:27:24 467.674
DELFI C3 07 Jul 21:22:06 21:25:46 35° 69° (ENE) 21:29:30 145.870
HO-68 07 Jul 21:27:45 21:34:41 51° 260° (W) 21:41:37 435.675
SEEDS 07 Jul 21:28:48 21:32:52 48° 261° (W) 21:36:58 437.485
AAUSAT CUBESAT 2 07 Jul 21:30:45 21:34:52 65° 259° (WSW) 21:39:02 437.432
UWE-3 07 Jul 21:36:01 21:40:06 53° 72° (ENE) 21:44:10 435.000/436.395/437.385
SO-50 07 Jul 21:39:38 21:42:29 15° 8° (N) 21:45:23 436.795
PCSat 07 Jul 21:40:03 21:43:24 16° 20° (NNE) 21:46:49 145.827
DOVE 4 07 Jul 21:45:55 21:49:58 27° 266° (W) 21:53:46 437.250
DX 1 07 Jul 21:58:42 22:02:34 32° 65° (ENE) 22:06:29 434.975-435.025
PRISM 07 Jul 21:59:33 22:02:00 15° 301° (WNW) 22:04:20 437.425
COMPASS 1 07 Jul 22:00:44 22:04:23 29° 266° (W) 22:08:02 437.405
ESTCUBE 1 07 Jul 22:01:29 22:04:07 16° 58° (ENE) 22:06:54 437.505/2401.250
VELOX 1 07 Jul 22:03:36 22:06:59 22° 62° (ENE) 22:10:27 145.980
HUMSAT D 07 Jul 22:04:53 22:08:40 38° 69° (ENE) 22:12:29 437.325/437.525
CINEMA 3 07 Jul 22:05:10 22:09:11 33° 264° (W) 22:13:02 145.822/145.860
BRITE-PL 07 Jul 22:06:06 22:06:56 10° 277° (W) 22:07:26 437.365/2234.400
UKube-1 07 Jul 22:13:50 22:17:53 40° 68° (ENE) 22:21:59 .
AUBIESAT-1 07 Jul 22:13:53 22:18:06 59° 107° (ESE) 22:22:36 437.475
ZACube-1 07 Jul 22:15:19 22:19:30 78° 257° (WSW) 22:23:40 437.345
Oscar 11 07 Jul 22:16:06 22:20:16 47° 261° (W) 22:24:28 145.826/435.025
CUTE 1.7 + AOD 2 07 Jul 22:24:46 22:26:44 13° 274° (W) 22:28:32 437.475
STRAND 1 07 Jul 22:25:09 22:27:54 14° 307° (NW) 22:30:29 437.568
Cosmos 2499 07 Jul 22:27:50 22:35:40 75° 264° (W) 22:44:06 435.465 / 435.565
CUBEBUG 2 07 Jul 22:29:20 22:33:16 36° 263° (W) 22:37:08 437.445
CANX-2 07 Jul 22:29:56 22:30:49 10° 276° (W) 22:31:29 2200.000
50 SAT 07 Jul 22:39:55 22:43:34 45° 70° (ENE) 22:47:17 437.505
FUNcube-1 07 Jul 22:50:19 22:54:11 35° 264° (W) 22:58:00 145.935
AISAT 07 Jul 22:50:43 22:55:06 58° 71° (ENE) 22:59:30 437.250
M-CUBED/EXP-1 PRIME 07 Jul 22:51:49 22:55:57 55° 294° (WNW) 23:00:23 437.505
GONETS M04 07 Jul 22:52:55 22:58:02 17° 287° (WNW) 23:02:41
ANTELSAT 07 Jul 22:53:55 22:57:14 21° 91° (E) 23:00:41 437.575/2403.000
CUBEBUG 1 07 Jul 22:57:18 23:01:24 38° 68° (ENE) 23:05:32 437.445
DELFI C3 07 Jul 22:57:36 23:00:57 24° 267° (W) 23:04:16 145.870
TIGRISAT 07 Jul 23:04:26 23:08:02 25° 93° (E) 23:11:46 435.000
POPSAT HIP 1 07 Jul 23:10:29 23:12:13 12° 86° (E) 23:14:09 437.405
QB50P2 07 Jul 23:10:35 23:12:30 13° 87° (E) 23:14:36 145.880/145.840
UWE-3 07 Jul 23:14:08 23:17:00 17° 271° (W) 23:19:44 435.000/436.395/437.385
SO-50 07 Jul 23:20:13 23:24:34 29° 32° (NNE) 23:28:56 436.795
PCSat 07 Jul 23:23:03 23:28:15 44° 44° (NE) 23:33:27 145.827
DX 1 07 Jul 23:34:50 23:38:47 32° 264° (W) 23:42:45 434.975-435.025
ESTCUBE 1 07 Jul 23:35:53 23:40:27 81° 258° (WSW) 23:45:02 437.505/2401.250
VELOX 1 07 Jul 23:38:53 23:43:15 51° 260° (W) 23:47:38 145.980
HUMSAT D 07 Jul 23:41:13 23:44:33 23° 268° (W) 23:47:50 437.325/437.525
UNISAT 6 07 Jul 23:45:17 23:49:40 63° 101° (ESE) 23:54:07 437.425
SPROUT 07 Jul 23:45:20 23:49:16 36° 68° (ENE) 23:53:14 437.525
QB50P1 07 Jul 23:47:40 23:51:21 29° 95° (E) 23:55:03 145.935-145.965
AUBIESAT-1 07 Jul 23:49:20 23:52:34 21° 303° (WNW) 23:55:51 437.475
UKube-1 07 Jul 23:50:32 23:54:11 25° 267° (W) 23:57:46 .
NANOSAT C BR1 08 Jul 00:00:15 00:04:11 38° 97° (E) 00:08:07 145.865
DUCHIFAT 1 08 Jul 00:05:51 00:09:50 42° 98° (E) 00:13:50 145.980
BUGSAT 1 08 Jul 00:06:39 00:10:11 28° 95° (E) 00:13:43 437.445
TISAT 1 08 Jul 00:12:10 00:16:11 45° 70° (ENE) 00:20:15 437.305
POLYITAN 1 08 Jul 00:15:39 00:19:48 56° 100° (E) 00:23:57 437.675
50 SAT 08 Jul 00:15:47 00:18:27 18° 269° (W) 00:21:04 437.505
Cosmos 2499 08 Jul 00:22:48 00:27:46 17° 283° (WNW) 00:32:32 435.465 / 435.565
RS-15 08 Jul 00:27:39 00:33:29 17° 97° (E) 00:40:07 29.354- 29.394
AISAT 08 Jul 00:28:55 00:32:05 18° 270° (W) 00:35:08 437.250
ANTELSAT 08 Jul 00:30:03 00:34:18 50° 289° (WNW) 00:38:38 437.575/2403.000
CUBEBUG 1 08 Jul 00:34:03 00:37:52 27° 266° (W) 00:41:38 437.445
TIGRISAT 08 Jul 00:40:49 00:44:56 41° 291° (WNW) 00:49:07 435.000
POPSAT HIP 1 08 Jul 00:44:29 00:48:43 77° 285° (WNW) 00:52:54 437.405
QB50P2 08 Jul 00:44:45 00:48:59 74° 286° (WNW) 00:53:11 145.880/145.840
BEESAT 08 Jul 00:44:51 00:48:32 23° 61° (ENE) 00:52:20 436.000
Cosmos 2491 08 Jul 00:53:01 01:00:11 28° 58° (ENE) 01:07:31 435.465 / 435.565
SWISSCUBE 08 Jul 01:00:22 01:04:36 32° 65° (ENE) 01:08:54 437.505
SO-50 08 Jul 01:00:35 01:05:35 71° 233° (SW) 01:10:28 436.795
PCSat 08 Jul 01:06:37 01:11:40 39° 245° (WSW) 01:16:40 145.827
ITUPSAT 1 08 Jul 01:07:28 01:11:45 34° 65° (ENE) 01:16:07 437.325
ESTCUBE 1 08 Jul 01:17:00 01:18:10 11° 276° (W) 01:19:04 437.505/2401.250
SPROUT 08 Jul 01:21:42 01:25:26 27° 266° (W) 01:29:06 437.525
UNISAT 6 08 Jul 01:23:00 01:26:05 18° 299° (WNW) 01:29:04 437.425
QB50P1 08 Jul 01:23:27 01:27:15 32° 293° (WNW) 01:30:59 145.935-145.965
YUBILEINY 08 Jul 01:35:50 01:39:57 15° 72° (ENE) 01:44:34 435.215
NANOSAT C BR1 08 Jul 01:36:22 01:39:53 26° 295° (WNW) 01:43:20 145.865
BUGSAT 1 08 Jul 01:42:03 01:45:40 30° 293° (WNW) 01:49:11 437.445
DUCHIFAT 1 08 Jul 01:42:05 01:45:27 23° 296° (WNW) 01:48:44 145.980
STARS 08 Jul 01:44:35 01:45:29 11° 55° (NE) 01:46:35 437.465
Oscar 19 08 Jul 01:45:04 01:49:01 23° 90° (E) 01:53:04 437.125/150
TISAT 1 08 Jul 01:48:54 01:52:11 21° 268° (W) 01:55:25 437.305
POLYITAN 1 08 Jul 01:52:22 01:55:22 19° 299° (WNW) 01:58:17 437.675
ITAMSAT 1 08 Jul 02:07:37 02:08:11 10° 82° (E) 02:09:04 435.822/435.867
AIST 1 08 Jul 02:07:48 02:11:52 37° 72° (ENE) 02:15:55
BEESAT 08 Jul 02:21:22 02:26:04 56° 260° (W) 02:30:48 436.000
Gurwin Techsat 1B 08 Jul 02:21:23 02:24:28 16° 86° (E) 02:27:45 435.225
POPSAT HIP 1 08 Jul 02:22:37 02:23:54 11° 304° (NW) 02:25:01 437.405
QB50P2 08 Jul 02:23:04 02:24:11 11° 304° (NW) 02:25:07 145.880/145.840
RS-15 08 Jul 02:33:01 02:43:43 66° 120° (ESE) 02:54:52 29.354- 29.394
KKS-1 08 Jul 02:34:31 02:38:42 42° 69° (ENE) 02:42:56 437.445
SWISSCUBE 08 Jul 02:37:56 02:42:25 37° 264° (W) 02:46:53 437.505
SO-50 08 Jul 02:43:20 02:45:20 12° 251° (WSW) 02:47:05 436.795
ITUPSAT 1 08 Jul 02:45:12 02:49:38 35° 264° (W) 02:54:04 437.325
Cosmos 2491 08 Jul 02:49:29 02:58:17 83° 262° (W) 03:06:59 435.465 / 435.565
JAS-2 08 Jul 03:10:57 03:15:27 19° 86° (E) 03:20:33 435.910
STARS 08 Jul 03:16:49 03:21:11 69° 73° (ENE) 03:25:33 437.465
AO-7 08 Jul 03:17:10 03:19:53 12° 78° (ENE) 03:23:13 29.400- 29.500
MOZHAYETS 4 08 Jul 03:20:46 03:23:44 18° 59° (ENE) 03:26:50
Oscar 19 08 Jul 03:23:44 03:28:48 58° 290° (WNW) 03:33:49 437.125/150
YUBILEINY 08 Jul 03:26:40 03:35:10 65° 93° (E) 03:43:47 435.215
ITAMSAT 1 08 Jul 03:43:35 03:48:49 68° 103° (ESE) 03:54:01 435.822/435.867
AIST 1 08 Jul 03:45:47 03:49:23 25° 271° (W) 03:52:52
Gurwin Techsat 1B 08 Jul 03:59:53 04:05:15 86° 287° (WNW) 04:10:35 435.225
Cosmos 2504 08 Jul 04:08:00 04:09:51 11° 73° (ENE) 04:12:08 435.465 / 435.565
KKS-1 08 Jul 04:11:51 04:15:32 24° 267° (W) 04:19:10 437.445
RS-15 08 Jul 04:45:52 04:56:38 54° 328° (NNW) 05:07:52 29.354- 29.394
Cosmos 2491 08 Jul 04:47:52 04:53:56 21° 284° (WNW) 04:59:36 435.465 / 435.565
JAS-2 08 Jul 04:54:44 05:01:24 85° 104° (ESE) 05:08:53 435.910
STARS 08 Jul 04:55:30 04:58:09 15° 272° (W) 05:00:39 437.465
MOZHAYETS 4 08 Jul 04:55:53 05:00:29 72° 259° (WSW) 05:05:07
HORYU 2 08 Jul 04:59:13 05:03:39 59° 101° (E) 05:08:04 437.375
Oscar 19 08 Jul 05:05:33 05:07:13 11° 309° (NW) 05:08:39 437.125/150
AO-7 08 Jul 05:06:41 05:14:55 57° 102° (ESE) 05:23:07 29.400- 29.500
ITAMSAT 1 08 Jul 05:23:54 05:27:54 22° 301° (WNW) 05:31:47 435.822/435.867
YUBILEINY 08 Jul 05:24:52 05:32:43 35° 297° (WNW) 05:40:29 435.215
CUBESAT XI-V 08 Jul 05:33:56 05:38:04 31° 66° (ENE) 05:42:15 437.345
Gurwin Techsat 1B 08 Jul 05:41:11 05:44:33 17° 305° (NW) 05:47:45 435.225
PRISM 08 Jul 05:43:59 05:46:04 14° 58° (ENE) 05:48:18 437.425
Cosmos 2504 08 Jul 05:53:53 06:00:38 63° 94° (E) 06:07:34 435.465 / 435.565
STRAND 1 08 Jul 06:25:55 06:30:40 39° 66° (ENE) 06:35:29 437.568
HORYU 2 08 Jul 06:36:39 06:39:56 20° 299° (WNW) 06:43:08 437.375
JAS-2 08 Jul 06:40:45 06:45:58 25° 302° (WNW) 06:51:28 435.910
O/OREOS (USA 219) 08 Jul 06:41:01 06:44:36 25° 105° (ESE) 06:48:17 437.305
BEESAT 3 08 Jul 06:42:40 06:46:19 33° 120° (ESE) 06:50:02 437.485
CUTE-I 08 Jul 06:48:02 06:52:38 29° 93° (E) 06:57:17 437.470
DANDE 08 Jul 06:58:34 07:02:17 17° 91° (E) 07:05:41 436.750
AO-7 08 Jul 06:59:48 07:07:35 44° 304° (WNW) 07:15:15 29.400- 29.500
BEESAT 2 08 Jul 07:00:25 07:04:14 38° 121° (ESE) 07:08:07 435.950
RS-15 08 Jul 07:01:47 07:12:03 38° 0° (N) 07:22:46 29.354- 29.394
CUSAT 1 08 Jul 07:08:26 07:12:45 24° 95° (E) 07:16:20 437.405
AIST 2 08 Jul 07:09:21 07:11:40 15° 112° (ESE) 07:14:08 435.215
CUBESAT XI-V 08 Jul 07:11:02 07:15:26 37° 264° (W) 07:19:50 437.345
PRISM 08 Jul 07:16:45 07:20:57 83° 256° (WSW) 07:25:12 437.425
Cubesat XI-IV 08 Jul 07:23:07 07:28:25 55° 100° (E) 07:33:41 437.490
ISS 08 Jul 07:25:44 07:28:21 23° 143° (SE) 07:30:59 145.825
VERMONT LUNAR 08 Jul 07:30:13 07:31:44 13° 168° (SSE) 07:33:17 437.305
AUBIESAT-1 08 Jul 07:33:07 07:35:23 17° 55° (NE) 07:37:49 437.475
Cosmos 2504 08 Jul 07:47:33 07:53:28 29° 297° (WNW) 07:59:23 435.465 / 435.565
GONETS M04 08 Jul 08:05:11 08:12:19 30° 82° (E) 08:19:39
STRAND 1 08 Jul 08:05:16 08:09:57 34° 265° (W) 08:14:38 437.568
M-CUBED/EXP-1 PRIME 08 Jul 08:10:11 08:13:26 43° 64° (ENE) 08:16:52 437.505
O/OREOS (USA 219) 08 Jul 08:19:31 08:23:49 45° 304° (NW) 08:28:08 437.305
BEESAT 3 08 Jul 08:20:22 08:24:13 38° 319° (NW) 08:28:06 437.485
BRITE-PL 08 Jul 08:23:24 08:26:55 25° 92° (E) 08:30:24 437.365/2234.400
CUTE-I 08 Jul 08:27:48 08:32:58 48° 293° (WNW) 08:38:05 437.470
CUTE 1.7 + AOD 2 08 Jul 08:29:45 08:30:08 10° 84° (E) 08:30:47 437.475
CANX-2 08 Jul 08:32:33 08:34:18 12° 85° (E) 08:36:15 2200.000
BEESAT 2 08 Jul 08:38:32 08:42:21 34° 321° (NW) 08:46:10 435.950
DANDE 08 Jul 08:38:53 08:45:19 79° 282° (WNW) 08:50:04 436.750
AIST 2 08 Jul 08:45:26 08:49:43 83° 310° (NW) 08:54:01 435.215
PHONESAT 2.4 08 Jul 08:46:20 08:48:02 13° 164° (SSE) 08:49:47 2401.200-2431.200
CUSAT 1 08 Jul 08:49:59 08:55:17 44° 286° (WNW) 08:59:18 437.405
HO-68 08 Jul 08:50:41 08:56:30 27° 90° (E) 09:02:27 435.675
AO-7 08 Jul 08:53:59 08:58:21 15° 328° (NNW) 09:02:28 29.400- 29.500
ISS 08 Jul 09:01:12 09:04:27 89° 172° (S) 09:07:43 145.825
Cubesat XI-IV 08 Jul 09:03:45 09:08:15 27° 299° (WNW) 09:12:40 437.490
VERMONT LUNAR 08 Jul 09:05:59 09:07:55 15° 185° (S) 09:09:51 437.305
AUBIESAT-1 08 Jul 09:06:30 09:09:49 48° 255° (WSW) 09:13:20 437.475
SEEDS 08 Jul 09:09:06 09:12:20 21° 91° (E) 09:15:40 437.485
AAUSAT CUBESAT 2 08 Jul 09:10:21 09:12:49 15° 88° (E) 09:15:25 437.432
UNISAT 6 08 Jul 09:14:42 09:16:38 13° 58° (ENE) 09:18:45 437.425
GOMX 1 08 Jul 09:15:35 09:19:41 49° 99° (E) 09:23:43 467.674
RS-15 08 Jul 09:16:17 09:27:29 54° 32° (NNE) 09:39:15 29.354- 29.394
Cosmos 2499 08 Jul 09:21:08 09:24:54 16° 76° (ENE) 09:29:05 435.465 / 435.565
COMPASS 1 08 Jul 09:39:09 09:43:00 33° 95° (E) 09:46:52 437.405
DOVE 4 08 Jul 09:39:34 09:43:40 54° 100° (E) 09:47:45 437.250
POLYITAN 1 08 Jul 09:40:38 09:41:36 11° 56° (NE) 09:42:45 437.675
M-CUBED/EXP-1 PRIME 08 Jul 09:46:25 09:48:37 16° 265° (W) 09:50:46 437.505
CINEMA 3 08 Jul 09:54:53 09:58:48 37° 97° (E) 10:02:47 145.822/145.860
ANTELSAT 08 Jul 09:57:12 10:00:55 30° 66° (ENE) 10:04:42 437.575/2403.000
Oscar 11 08 Jul 09:59:18 10:02:46 23° 92° (E) 10:06:17 145.826/435.025
GONETS M04 08 Jul 09:59:45 10:08:33 72° 284° (WNW) 10:17:18
ZACube-1 08 Jul 10:00:30 10:02:52 15° 88° (E) 10:05:24 437.345
BEESAT 3 08 Jul 10:01:16 10:03:16 13° 342° (NNW) 10:05:13 437.485
BRITE-PL 08 Jul 10:01:40 10:05:39 36° 292° (WNW) 10:09:28 437.365/2234.400
CUTE 1.7 + AOD 2 08 Jul 10:02:31 10:06:50 85° 103° (ESE) 10:11:08 437.475
O/OREOS (USA 219) 08 Jul 10:04:08 10:04:30 10° 327° (NNW) 10:04:43 437.305
CANX-2 08 Jul 10:06:33 10:10:52 81° 285° (WNW) 10:15:10 2200.000
POPSAT HIP 1 08 Jul 10:07:07 10:09:58 18° 61° (ENE) 10:12:55 437.405
QB50P2 08 Jul 10:07:25 10:10:20 19° 62° (ENE) 10:13:23 145.880/145.840
TIGRISAT 08 Jul 10:07:28 10:11:21 36° 68° (ENE) 10:15:17 435.000
CUTE-I 08 Jul 10:11:30 10:11:56 10° 312° (NW) 10:12:07 437.470
CUBEBUG 2 08 Jul 10:15:28 10:19:14 31° 95° (E) 10:23:07 437.445
BEESAT 2 08 Jul 10:19:45 10:21:35 12° 343° (NNW) 10:23:23 435.950
PHONESAT 2.4 08 Jul 10:22:52 10:25:18 18° 181° (S) 10:27:45 2401.200-2431.200
AIST 2 08 Jul 10:25:41 10:28:56 20° 332° (NNW) 10:32:06 435.215
DANDE 08 Jul 10:26:11 10:28:55 13° 298° (WNW) 10:31:09 436.750
DELFI C3 08 Jul 10:31:31 10:35:14 33° 96° (E) 10:38:56 145.870
FUNcube-1 08 Jul 10:33:47 10:37:32 30° 95° (E) 10:41:21 145.935
ISS 08 Jul 10:37:46 10:40:59 57° 1° (N) 10:44:12 145.825
HO-68 08 Jul 10:37:48 10:44:57 73° 292° (WNW) 10:52:05 435.675
SEEDS 08 Jul 10:44:17 10:48:22 45° 290° (WNW) 10:52:27 437.485
QB50P1 08 Jul 10:44:23 10:48:19 39° 69° (ENE) 10:52:17 145.935-145.965
AAUSAT CUBESAT 2 08 Jul 10:44:41 10:48:53 63° 287° (WNW) 10:53:02 437.432
UNISAT 6 08 Jul 10:48:34 10:52:51 87° 254° (WSW) 10:57:09 437.425
GOMX 1 08 Jul 10:54:29 10:57:34 20° 298° (WNW) 11:00:31 467.674
NANOSAT C BR1 08 Jul 10:56:43 11:00:48 50° 71° (ENE) 11:04:55 145.865
UWE-3 08 Jul 10:57:27 11:01:40 66° 102° (ESE) 11:05:58 435.000/436.395/437.385
BUGSAT 1 08 Jul 11:00:33 11:04:25 37° 68° (ENE) 11:08:18 437.445
DUCHIFAT 1 08 Jul 11:02:06 11:06:14 55° 72° (ENE) 11:10:23 145.980
Cosmos 2499 08 Jul 11:09:49 11:16:51 79° 97° (E) 11:24:11 435.465 / 435.565
POLYITAN 1 08 Jul 11:12:36 11:16:49 75° 74° (ENE) 11:21:03 437.675
COMPASS 1 08 Jul 11:14:54 11:18:36 29° 294° (WNW) 11:22:15 437.405
DOVE 4 08 Jul 11:18:14 11:21:07 18° 298° (WNW) 11:23:54 437.250
DX 1 08 Jul 11:18:28 11:22:19 31° 95° (E) 11:26:11 434.975-435.025
HUMSAT D 08 Jul 11:19:41 11:23:37 40° 97° (E) 11:27:37 437.325/437.525
ESTCUBE 1 08 Jul 11:25:21 11:28:06 16° 88° (E) 11:31:00 437.505/2401.250
VELOX 1 08 Jul 11:25:26 11:28:50 22° 91° (E) 11:32:18 145.980
RS-15 08 Jul 11:29:05 11:40:36 68° 239° (WSW) 11:52:32 29.354- 29.394
CINEMA 3 08 Jul 11:32:25 11:35:54 25° 295° (WNW) 11:39:21 145.822/145.860
UKube-1 08 Jul 11:32:45 11:36:49 38° 98° (E) 11:40:52 .
ANTELSAT 08 Jul 11:33:51 11:37:42 32° 265° (W) 11:41:32 437.575/2403.000
Oscar 11 08 Jul 11:35:01 11:39:10 43° 290° (WNW) 11:43:17 145.826/435.025
ZACube-1 08 Jul 11:35:30 11:39:43 67° 287° (WNW) 11:43:59 437.345
YUBILEINY 08 Jul 11:36:59 11:39:15 11° 37° (NE) 11:42:00 435.215
CUTE 1.7 + AOD 2 08 Jul 11:39:55 11:42:11 14° 301° (WNW) 11:44:18 437.475
POPSAT HIP 1 08 Jul 11:41:18 11:45:29 58° 259° (W) 11:49:40 437.405
QB50P2 08 Jul 11:41:43 11:45:54 56° 260° (W) 11:50:05 145.880/145.840
CANX-2 08 Jul 11:44:29 11:46:08 12° 303° (WNW) 11:47:37 2200.000
TIGRISAT 08 Jul 11:44:36 11:48:13 26° 266° (W) 11:51:48 435.000
50 SAT 08 Jul 11:45:33 11:49:13 37° 97° (E) 11:52:55 437.505
CUBEBUG 2 08 Jul 11:52:11 11:55:56 31° 293° (WNW) 11:59:41 437.445
BEESAT 2 08 Jul 12:00:52 12:01:24 10° 7° (N) 12:01:57 435.950
PHONESAT 2.4 08 Jul 12:01:04 12:02:34 12° 197° (SSW) 12:04:02 2401.200-2431.200
GONETS M04 08 Jul 12:01:08 12:07:22 20° 310° (NW) 12:13:16
DELFI C3 08 Jul 12:06:43 12:10:14 28° 294° (WNW) 12:13:41 145.870
AIST 2 08 Jul 12:08:07 12:09:04 11° 355° (N) 12:10:00 435.215
FUNcube-1 08 Jul 12:10:04 12:13:53 32° 292° (WNW) 12:17:41 145.935
AISAT 08 Jul 12:13:22 12:17:46 64° 102° (ESE) 12:22:09 437.250
ISS 08 Jul 12:14:14 12:17:29 76° 202° (SSW) 12:20:44 145.825
CUBEBUG 1 08 Jul 12:17:47 12:21:55 40° 97° (E) 12:26:01 437.445
QB50P1 08 Jul 12:20:48 12:24:19 24° 267° (W) 12:27:47 145.935-145.965
HO-68 08 Jul 12:26:41 12:31:40 20° 312° (NW) 12:36:28 435.675
UNISAT 6 08 Jul 12:29:44 12:30:26 10° 276° (W) 12:30:52 437.425
AO-7 08 Jul 12:33:44 12:36:12 12° 25° (NNE) 12:38:56 29.400- 29.500
NANOSAT C BR1 08 Jul 12:33:52 12:36:57 19° 270° (W) 12:39:57 145.865
UWE-3 08 Jul 12:35:04 12:37:49 17° 299° (WNW) 12:40:28 435.000/436.395/437.385
BUGSAT 1 08 Jul 12:36:29 12:40:00 25° 267° (W) 12:43:27 437.445
DUCHIFAT 1 08 Jul 12:39:32 12:42:25 17° 270° (W) 12:45:11 145.980
POLYITAN 1 08 Jul 12:51:12 12:53:18 13° 273° (W) 12:55:13 437.675
DX 1 08 Jul 12:54:40 12:58:35 33° 294° (WNW) 13:02:27 434.975-435.025
HUMSAT D 08 Jul 12:55:48 12:59:13 24° 295° (WNW) 13:02:35 437.325/437.525
ESTCUBE 1 08 Jul 13:00:58 13:05:31 68° 287° (WNW) 13:10:00 437.505/2401.250
VELOX 1 08 Jul 13:01:24 13:05:40 47° 291° (WNW) 13:09:52 145.980
SPROUT 08 Jul 13:03:17 13:07:16 37° 97° (E) 13:11:16 437.525
Cosmos 2499 08 Jul 13:05:25 13:11:03 24° 302° (WNW) 13:16:43 435.465 / 435.565
Oscar 19 08 Jul 13:05:55 13:10:50 50° 69° (ENE) 13:15:48 437.125/150
UKube-1 08 Jul 13:09:09 13:12:49 27° 296° (WNW) 13:16:24 .
BEESAT 3 08 Jul 13:19:28 13:22:27 19° 29° (NNE) 13:25:26 437.485
50 SAT 08 Jul 13:20:32 13:23:40 23° 295° (WNW) 13:26:45 437.505
TISAT 1 08 Jul 13:27:45 13:31:46 43° 98° (E) 13:35:47 437.305
ITAMSAT 1 08 Jul 13:27:46 13:32:03 27° 61° (ENE) 13:36:27 435.822/435.867
YUBILEINY 08 Jul 13:31:13 13:39:22 42° 66° (ENE) 13:47:38 435.215
JAS-2 08 Jul 13:31:59 13:33:42 12° 46° (NE) 13:35:40 435.910
BEESAT 2 08 Jul 13:37:47 13:40:57 21° 30° (NNE) 13:44:08 435.950
RS-15 08 Jul 13:43:22 13:51:10 20° 261° (W) 13:58:25 29.354- 29.394
Gurwin Techsat 1B 08 Jul 13:46:10 13:51:00 38° 65° (ENE) 13:55:56 435.225
AIST 2 08 Jul 13:47:07 13:49:24 14° 19° (NNE) 13:51:42 435.215
AISAT 08 Jul 13:50:53 13:53:56 18° 300° (WNW) 13:56:52 437.250
ISS 08 Jul 13:51:11 13:53:30 18° 219° (SW) 13:55:46 145.825
CUBEBUG 1 08 Jul 13:54:29 13:58:07 26° 296° (WNW) 14:01:39 437.445
Cosmos 2491 08 Jul 14:01:36 14:08:12 25° 79° (E) 14:15:04 435.465 / 435.565
PCSat 08 Jul 14:12:03 14:14:35 14° 105° (ESE) 14:17:22 145.827
BEESAT 08 Jul 14:17:24 14:21:30 27° 93° (E) 14:25:36 436.000
AO-7 08 Jul 14:19:27 14:26:28 32° 50° (NE) 14:33:37 29.400- 29.500
HORYU 2 08 Jul 14:27:43 14:29:56 14° 57° (ENE) 14:32:18 437.375
